www.pogodaiklimat.ru

Погода и климат >> Архив погоды >> Аргентина >> Мендоса


ПОГОДА в Мендосе

  • Прогноз погоды в Мендосе
  • Монитор погоды в Мендосе

АРХИВ ПОГОДЫ в Мендосе

Время (UTC), дата Ветер
(напр.,м/с)
 
Видим.   Явления Облачность Т
(С)
Тd
(С)
f
(%)
Тe
(С)
Тes
(С)
Комфортность P
(гПа)
Po
(гПа)
Тmin
(С)
Tmax
(С)
R
(мм)
R24
(мм)
S
(см)
09 9.09 Ю 5 15 км 4/0
[Ac As]
+15.0 +3.3 45 +14 +14 1007.5 928.0
12 9.09 Ю 6 15 км 9/8 1140 м
[Cu med, cong Ac As]
+13.0 +5.3 59 +11 +11 1012.6 932.1 +12.7 +15.5
15 9.09 Ю 4 6000 м слаб. дождь 10/8 450 м
[Cb cap As op]
+9.8 +8.4 91 +7 +8 1017.0 935.6
18 9.09 Ю 5 15 км {дождь} 10/5 750 м
[Sc As op]
+9.9 +5.9 76 +7 +8 1017.1 935.6 4
21 9.09 Ю 5 8000 м слаб. морось 10/8 450 м
[Frnb As op]
+8.3 +6.0 85 +5 +5 1017.9 936.2
00 10.09 Ю 2 5000 м слаб. морось {дождь} 10/8 240 м
[Frnb As op]
+7.4 +7.0 97 +6 +6 1021.4 939.0 +7.0 +13.2 1
03 10.09 СЗ 1 15 км {морось} 8/5 600 м
[Frnb As op]
+8.0 +5.9 87 +7 +7 1021.3 938.6
06 10.09 ЮВ 2 15 км {морось} 3/3 1350 м
[Sc]
+5.4 +4.5 94 +3 +3 1020.5 937.4 0.0
09 10.09 З 1 15 км ясно +4.6 +4.1 97 +3 +3 1019.8 936.5
12 10.09 З 1 4000 м дымка 8/0
[Ac As]
+4.4 +3.7 95 +3 +4 1022.8 939.0 +2.2 +8.4 5
18 10.09 В 2 15 км 5/4 1500 м
[Sc Ac As]
+13.4 +3.3 50 +13 +21 1018.2 935.8
21 10.09 ЮЗ 2 15 км 9/4 1500 м
[Sc Ac As]
+14.5 +4.0 49 +15 +15 1017.5 935.3
00 11.09 штиль 0 15 км 8/4 1200 м
[Sc Ac As]
+12.5 +6.4 66 +12 +12 1020.1 937.4 +4.4 +14.5
03 11.09 ЮЗ 2 15 км 8/4 1200 м
[Sc Ac As]
+11.0 +4.1 62 +10 +10 1020.0 938.0
06 11.09 Ю 3 10 км слаб. морось 10/10 900 м
[Frnb]
+9.5 +6.4 81 +7 +7 1020.2 938.2 0.0
09 11.09 ЮВ 4 15 км слаб. морось 10/10 450 м
[Frnb]
+5.0 +3.9 93 +1 +1 1021.5 939.0
12 11.09 ЮВ 2 6000 м слаб. морось 10/10 450 м
[Frnb]
+4.2 +3.3 94 +1 +1 1024.5 941.4 +3.6 +12.5 1
15 11.09 ЮВ 3 15 км {морось} 10/10 600 м
[Sc]
+5.2 +2.8 84 +2 +2 1025.6 942.2
18 11.09 ЮВ 3 15 км {морось} 9/9 1050 м
[Sc]
+7.7 +2.6 70 +5 +7 1023.1 940.2 0.0
21 11.09 ЮЗ 1 15 км 8/8 1200 м
[Sc]
+9.6 +3.4 65 +9 +10 1022.8 939.4
00 12.09 штиль 0 15 км ясно +6.0 +3.7 85 +5 +5 1022.9 939.0 +4.0 +10.4
03 12.09 штиль 0 6000 м дымка ясно +3.4 +2.9 97 +2 +2 1024.9 940.6
06 12.09 ЮВ 1 15 км ясно +2.8 +2.3 97 +1 +1 1024.4 940.4
09 12.09 штиль 0 15 км ясно +0.8 +0.3 96 -1 -1 1024.5 940.5
12 12.09 штиль 0 15 км ясно +4.8 +2.4 84 +4 +6 1025.8 941.8 +0.4 +6.0 0.0
15 12.09 СВ 3 15 км ясно +13.4 +2.4 47 +13 +24 опасность
простуды
1023.9 940.9
18 12.09 СВ 6 15 км ясно +18.8 -3.5 22 +18 +23 1020.1 938.0
21 12.09 СВ 6 15 км 3/0
[Ci fib]
+19.4 -3.0 22 +19 +20 1018.2 936.1
00 13.09 З 2 15 км 3/0
[Ci fib]
+14.8 +2.1 42 +15 +15 1019.7 937.4 +4.8 +19.6
03 13.09 ЮЗ 2 15 км 3/0
[Ci fib]
+10.4 +2.0 56 +9 +9 1019.6 937.8
06 13.09 ЮЗ 2 15 км 3/0
[Ci fib]
+8.5 +2.5 66 +7 +7 1017.2 936.1
09 13.09 Ю 2 15 км 4/0
[Ci fib]
+6.5 +1.2 69 +5 +5 1016.0 934.8
12 13.09 ЮВ 2 15 км 1/0
[Ci sp]
+10.0 +0.8 53 +9 +11 1017.0 935.6 +5.0 +14.9
15 13.09 ЮВ 3 15 км ясно +15.3 -1.0 33 +15 +26 опасность
простуды
1016.3 935.0
18 13.09 В 3 15 км ясно +19.8 -0.5 26 +20 +31 1013.0 932.4
21 13.09 С 2 15 км 1/0
[Ci sp]
+21.0 -1.1 23 +22 +24 комфорт 1011.7 931.0
00 14.09 штиль 0 15 км 5/0
[Ac As Cs]
+16.5 +5.4 48 +16 +16 1012.7 931.8 +10.0 +22.0
03 14.09 штиль 0 15 км ясно +12.8 +2.4 49 +13 +13 1012.3 931.7
06 14.09 ЮЗ 2 15 км ясно +9.5 +2.7 63 +8 +8 1009.8 929.6
09 14.09 штиль 0 15 км ясно +8.1 +2.0 65 +8 +8 1008.5 928.4
12 14.09 штиль 0 15 км ясно +10.6 +3.8 63 +10 +13 1009.7 929.2 +5.8 +16.5
15 14.09 В 2 15 км 4/0
[Ac lent Cc]
+17.5 +2.1 36 +18 +27 1008.9 928.9
18 14.09 СВ 3 15 км 3/0
[Cs]
+22.6 +1.0 24 +22 +32 комфорт 1004.4 925.0
21 14.09 В 2 15 км 5/0
[Ac As Ci]
+23.6 +3.6 27 +23 +25 комфорт 1003.3 923.8
00 15.09 З 2 15 км 3/0
[Ac As Cs]
+18.3 +6.2 45 +19 +19 1005.0 925.0 +10.6 +24.2
03 15.09 штиль 0 15 км ясно +13.8 +6.1 60 +14 +14 1004.7 925.2
06 15.09 ЮЗ 2 15 км ясно +10.7 +4.2 64 +10 +10 1003.3 924.1
09 15.09 Ю 4 15 км 3/0
[Cs]
+14.1 +3.1 47 +13 +13 1004.2 925.4
12 15.09 Ю 3 15 км 6/0
[Ac As Cs]
+16.8 +7.6 55 +17 +18 1006.3 927.0 +9.8 +18.3
15 15.09 ЮВ 6 15 км 8/0
[Ac As Cs]
+21.6 -5.0 16 +20 +25 1006.0 926.6
18 15.09 ЮВ 4 15 км 3/1 1500 м
[Cu hum Ci fib]
+23.4 -2.4 18 +22 +30 комфорт 1003.9 924.8
21 15.09 ЮВ 4 15 км 3/1 1500 м
[Cu hum Ci fib]
+24.6 -2.1 17 +23 +24 комфорт 1003.9 925.4
00 16.09 ЮЗ 2 15 км ясно +18.8 +3.0 35 +20 +20 1009.0 929.7 +16.6 +25.5
03 16.09 Ю 9 15 км 6/5 1350 м
[Sc Ac As]
+13.8 -0.1 38 +11 +11 1018.4 938.2
06 16.09 Ю 8 15 км 9/8 1200 м
[Sc Ac As]
+10.8 -0.8 45 +8 +8 1022.1 941.6

 

Местоположение метеостанции Мендоса (Аргентина): широта -32.83 долгота -68.78 высота над уровнем моря 704 м.

В архиве по умолчанию представлена погода в Мендосе за последнюю неделю. Архивные данные за месяц целиком и за предыдущие месяцы, начиная с января 2011 года, Вы можете получить, выбрав интересующий диапазон дат из раскрывающегося списка и нажав кнопку "Ввод!".


*Определитесь, кто Вы:
робот инопланетянин человек

Внимание! Время в таблицах - всемирное. Для получения местного времени необходимо прибавить поправку, которая равна -3 ч.

Смотрите также архив погоды в соседних городах и на ближайших метеорологических станциях:

Погода в Сан-Мартине (Аргентина) (44 км)
Погода на Пасо Лос Либертадорес (Чили) (125 км)
Погода в Сан-Хуане (Аргентина) (163 км)
Погода в Сан-Хосе-де-Майпо (Чили) (170 км)
Погода в Сантьяго Агуас Андинас (Чили) (183 км)
Погода в Ло-Пинто (Чили) (188 км)
Погода в Сантьяго (Чили) (189 км)
Погода в Пудауэле (Чили) (196 км)
Погода в Сан-Рафаэле (Аргентина) (198 км)
Погода в Льяй Льяй (Чили) (199 км)

Пояснения к столбцам:

Ветер - указаны скорость ветра в м/с - средняя за 10 мин, порывы в срок и между сроками (в фигурных скобках) и направление, откуда дует ветер: С - северный, СВ - северо-восточный, В - восточный, ЮВ - юго-восточный, Ю - южный, ЮЗ - юго-западный, З - западный, СЗ - северо-западный.
Видимость - горизонтальная дальность видимости в метрах или километрах. При видимости от 1 до 10 км при отсутствии осадков обычно наблюдается дымка, при ухудшении видимости до 1 км и менее - туман. В сухую погоду видимость может ухудшаться дымом, пылью или мглою.
Явления - указаны атмосферные явления, наблюдавшиеся в срок или в последний час перед сроком; фигурными скобками обозначены явления, наблюдавшиеся между сроками (за 1-3 часа до срока); квадратными скобками обозначены град или гололедные отложения с указанием их диаметра в мм.
Облачность - указаны через наклонную черту общая и нижняя облачность в баллах и высота нижней границы облаков в метрах; квадратными скобками обозначены формы облаков: Ci - перистые, Cs - перисто-слоистые, Cc - перисто-кучевые, Ac - высококучевые, As - высокослоистые, Sc - слоисто-кучевые, Ns - слоисто-дождевые, Cu - кучевые, Cb - кучево-дождевые. Подробнее классификацию облаков см. в Атласе облаков (PDF).
T - Температура воздуха - температура, измеренная на высоте 2 м над землей.
Td - Температура точки росы - температура, при понижении до которой содержащийся в воздухе водяной пар достигнет насыщения.
f - Относительная влажность воздуха - влажноcть воздуха, измеренная на высоте 2 м над землей.
Te - Эффективная температура - температура, которую ощущает одетый по сезону человек в тени. Характеристика душности погоды. При расчете учитывается влияние влажности воздуха и скорости ветра на теплоощущения человека.
Tes - Эффективная температура на солнце - температура, которую ощущает человек, с поправкой на солнечный нагрев. Характеристика знойности погоды. Зависит от высоты солнца над горизонтом, облачности и скорости ветра. Ночью, в пасмурную погоду, а также при ветре 12 м/с и более поправка равна нулю.
P - Атмосферное давление - приведенное к уровню моря атмосферное давление.
Po - Атмосферное давление - измеренное на уровне метеостанции атмосферное давление.
Tmin - Минимальная температура - минимум температуры воздуха на высоте 2 м над землей.
Tmax - Максимальная температура - максимум температуры воздуха на высоте 2 м над землей.
R - Количество осадков - Количество выпавших осадков за период времени, мм. При наведении курсора мыши на число - период времени, за который выпало указанное количество осадков.
R24 - Количество осадков - Количество выпавших осадков за 24 часа, мм.
S - Снежный покров - Высота снежного покрова, см. При наведении курсора мыши на число - состояние снежного покрова и степень покрытия местности в баллах.